Location: Newark
(34.6000°S, 58.3833°W)
Time: 20:25:29
(UTC+00:00)

N. Korean satellite - Pass Details

Date: 24 October 2019
Orbit: 456 x 506 km, 97.2° (Epoch: 22 November)

Event Time Altitude Azimuth Distance (km) Brightness Sun altitude
Rises 08:09:40 0° 49° (NE) 2,604 10.6 -10.8°
Reaches altitude 10° 08:12:20 10° 70° (ENE) 1,726 10.1 -10.3°
Maximum altitude 08:14:43 17° 110° (ESE) 1,371 10.2 -9.8°
Drops below altitude 10° 08:17:07 10° 150° (SSE) 1,733 10.2 -9.4°
Sets 08:19:48 0° 171° (S) 2,620 10.7 -8.9°
